Location: Lardi�s
(42.4983°N, 0.1328°W)
Time: 17:40:39
(UTC+00:00)

Daily predictions for brighter satellites

Satellite Brightness Start Highest point End
(mag) Time Altitude Azimuth Time Altitude Azimuth Time Altitude Azimuth
COSMOS 2428 4.3 20:16:51 10° SE 20:19:57 15° E 20:23:03 10° ENE
Geosat 4.0 20:15:50 10° SSE 20:20:52 84° ENE 20:25:55 10° NNW
Cosmos 1812 Rocket 3.8 20:19:07 10° N 20:23:22 51° ENE 20:27:34 10° SSE
Delta 2 Rocket 4.0 20:22:34 10° SW 20:25:26 24° S 20:28:10 10° ESE
CZ-2C R/B 4.1 20:22:43 10° N 20:27:30 77° WNW 20:32:15 10° SSW
Cosmos 1602 Rocket 3.5 20:23:34 10° S 20:27:57 76° E 20:32:25 10° NNE
Cosmos 2263 Rocket 3.3 20:27:35 10° NW 20:32:48 42° WSW 20:37:59 10° S
Atlas Centaur 2 3.4 20:28:30 10° SW 20:33:13 26° S 20:38:47 10° ESE
MetOp-B 4.4 20:28:14 10° SSE 20:33:26 55° ENE 20:38:39 10° N
Nadezhda 1 Rocket 4.2 20:27:44 10° N 20:34:06 63° E 20:40:24 10° SSE
Terra 3.9 20:32:42 10° E 20:35:15 14° ENE 20:37:46 10° NNE
Cosmos 2219 Rocket 3.3 20:31:32 10° SSE 20:35:49 23° E 20:40:07 10° NE
Cosmos 2360 Rocket 2.2 20:31:50 10° SSW 20:37:25 70° ESE 20:43:04 10° NNE
IGS 5A 4.2 20:35:34 12° SE 20:39:08 38° ENE 20:42:59 10° N
Meteor 2-1 Rocket 4.4 20:33:48 10° N 20:39:41 90° SW 20:45:35 10° S
IRIS 4.1 20:37:41 10° WSW 20:41:01 50° S 20:43:18 11° E
Cosmos 2333 Rocket 3.0 20:40:37 10° SSE 20:45:29 31° ESE 20:50:25 10° NE
Resurs 01 Rocket 2.0 20:46:29 10° S 20:50:51 64° WSW 20:55:14 10° NNW
Cosmos 1818 3.6 20:47:11 10° SSW 20:52:37 88° WNW 20:58:06 10° NNE
CZ-2C R/B 4.2 20:50:34 10° N 20:55:32 38° WNW 21:00:22 10° SW
Cosmos 773 Rocket 4.4 20:50:34 10° S 20:55:34 45° ESE 21:00:37 10° NNE
Cosmos-2242 3.3 20:51:39 10° N 20:55:54 50° E 20:59:05 17° SSE
SL-16 R/B 3.8 20:51:12 10° SW 20:56:28 39° WNW 21:01:46 10° N
ERS-1 Rocket 3.7 20:56:51 16° SE 21:00:26 39° ENE 21:05:07 10° N
GEOS 3 Rocket 3.6 21:00:10 10° NE 21:05:36 81° SE 21:10:59 10° SW
Cosmos 2278 Rocket 4.0 21:04:47 10° N 21:08:56 20° NE 21:13:05 10° E
USA 215 3.3 21:02:39 10° NE 21:09:07 59° SE 21:15:32 10° SSW
ATLAS 5 CENTAUR R/B 1.8 21:05:21 10° SW 21:09:24 68° NW 21:13:58 10° NNE
Meteor 1-11 4.4 21:05:32 13° SSE 21:10:22 53° E 21:15:52 10° NNE
USA 245 3.0 21:08:35 21° SSE 21:10:39 88° WSW 21:14:37 10° NNW
Cosmos 1758 Rocket 3.8 21:08:59 10° SSW 21:13:27 73° W 21:17:58 10° N
Cosmos 1844 Rocket 2.6 21:08:41 10° NNW 21:14:18 89° ENE 21:18:16 20° SSE
Cosmos 1400 Rocket 2.7 21:11:14 10° N 21:15:14 83° E 21:17:41 22° SSE
SPOT 5 3.4 21:13:56 20° SE 21:17:06 48° ENE 21:21:45 10° N
Meteor 2-10 Rocket 4.3 21:13:24 10° NNW 21:18:20 49° W 21:23:25 10° SSW
Spot 2 Rocket 3.7 21:16:44 15° S 21:20:54 73° WSW 21:26:01 10° NNW
OAO 3 Rocket 4.3 21:18:03 10° WSW 21:22:16 29° SSW 21:23:58 23° SSE
USA 81 4.2 21:19:52 20° SSE 21:23:23 55° E 21:28:33 10° NNE
Landsat 7 4.0 21:21:48 17° S 21:25:26 69° WSW 21:30:12 10° NNW
BREEZE M DEB (TANK) 2.2 21:24:40 10° NW 21:27:06 48° NNE 21:27:39 36° ENE
Cosmos 2181 Rocket 4.1 21:23:57 10° N 21:30:17 66° E 21:34:15 23° SSE
SPOT 1/Viking Rocket 3.7 21:31:53 20° S 21:35:30 70° WSW 21:40:41 10° NNW
Cosmos 1953 Rocket 3.6 21:33:11 16° SSW 21:36:35 76° W 21:40:56 10° N
USA 267 4.2 21:34:22 10° E 21:40:30 44° NNE 21:46:38 10° NW
SAR-Lupe-2 4.4 21:41:40 10° N 21:45:09 49° WNW 21:47:57 15° SW
Cosmos 2084 4.1 21:41:47 10° NNW 21:46:07 48° NE 21:48:05 28° ESE
OAO 2 Rocket 4.0 21:42:18 10° WSW 21:47:10 37° S 21:48:29 32° SSE
Cosmos 1842 Rocket 4.0 21:43:30 10° N 21:47:42 47° ENE 21:49:02 35° SE
Cosmos 1455 4.4 21:45:32 10° NW 21:48:27 21° W 21:51:23 10° SW
MTI 4.4 21:50:37 10° NNE 21:53:10 38° ENE 21:53:10 38° ENE
Cosmos 923 Rocket 4.5 21:52:20 33° SE 21:53:55 42° ESE 21:58:52 10° NNE
Cosmos 1825 4.4 21:58:09 13° ENE 21:58:09 13° ENE 21:59:27 10° ENE
ATLAS CENTAUR R/B 1.3 21:54:01 10° NNW 21:57:40 60° NE 21:58:26 47° ESE
Cosmos 1980 4.1 21:56:55 33° SSE 21:58:38 41° ESE 22:03:55 10° NE
Cosmos 967 Rocket 4.5 21:55:33 17° SSW 22:00:37 64° ESE 22:07:02 10° NE
COSMOS 2428 2.8 21:57:49 10° SSW 22:03:28 76° WNW 22:09:11 10° NNE
Cosmos 1869 3.3 22:04:42 10° N 22:08:40 64° E 22:09:23 53° SE
NOSS 0 Rocket 3.9 22:07:32 28° S 22:10:52 65° ESE 22:16:59 10° NNE
Terra 1.9 22:10:34 37° S 22:12:24 69° WSW 22:17:10 10° NNW
Cosmos 2237 Rocket 2.3 22:14:58 38° SSE 22:16:51 55° ESE 22:22:25 10° NNE
Genesis I 4.2 22:18:35 31° E 22:18:35 31° E 22:21:11 10° NE
BREEZE-M DEB (TANK) 4.4 22:15:27 10° W 22:18:29 26° SW 22:18:38 26° SSW
Cosmos 2344 3.8 22:16:02 30° SSE 22:19:17 47° ESE 22:26:35 10° NE
Cosmos 2219 Rocket 3.0 22:13:57 10° SW 22:19:22 51° WNW 22:24:50 10° NNE
Elektron 1 4.0 22:21:21 66° E 22:21:21 66° E 22:25:27 10° NE
Atlas Centaur 2 3.6 22:16:24 10° WSW 22:21:21 27° SSW 22:21:21 27° SSW
BREEZE-M R/B 3.9 22:12:00 10° WNW 22:21:50 68° SW 22:23:36 42° SSE
NOSS 3-3 (A) 4.5 22:16:24 10° SW 22:22:08 59° NW 22:28:38 10° NNE
NOSS 3-3 (C) 4.5 22:16:29 10° SW 22:22:15 59° NW 22:28:46 10° NNE
DELTA 2 R/B (1) 3.6 22:22:13 10° WSW 22:27:37 52° SSE 22:30:03 31° ESE
Cosmos 1315 Rocket 3.9 22:25:00 10° NNW 22:28:48 38° W 22:29:55 32° SW
Cosmos 2333 Rocket 3.4 22:24:14 10° SW 22:29:35 41° WNW 22:34:59 10° NNE
Cosmos 2184 Rocket 4.1 22:27:10 29° SSW 22:30:34 76° W 22:36:54 10° N
Thor Agena Rocket 3.7 22:27:26 10° NNE 22:32:27 53° E 22:33:18 47° SE
Meteor 2-2 Rocket 4.3 22:28:02 10° NNW 22:33:51 77° W 22:35:55 41° S
Cosmos 2221 2.9 22:34:10 10° NNW 22:38:28 56° W 22:39:20 46° SW
BREEZE-M DEB (TANK) 3.5 22:36:26 10° WNW 22:40:10 28° N 22:41:22 20° NE
Cosmos 1892 2.8 22:41:59 63° WSW 22:42:14 65° W 22:46:01 10° N
Iridium 2 4.0 22:38:52 10° N 22:42:26 54° ENE 22:42:26 54° ENE
ATLAS 2AS CENTAUR R/B 3.2 22:35:18 10° NNW 22:42:46 59° NE 22:46:25 29° ESE
EO 1 Del DPAF 3.5 22:41:43 10° NNE 22:44:59 54° ENE 22:44:59 54° ENE
Okean 3 Rocket 4.5 22:47:03 35° E 22:47:03 35° E 22:50:59 10° NNE
MOS 1-B Rocket 4.3 22:39:58 10° NNE 22:47:32 67° E 22:49:56 42° SSE
Cosmos 2112 Rocket 3.9 22:48:24 49° SSW 22:49:53 86° ESE 22:55:17 10° NNE
USA 215 4.2 22:45:46 10° NE 22:52:01 49° NNW 22:58:14 10° W
Cosmos 1606 4.2 22:49:09 10° NNE 22:52:19 27° ENE 22:52:19 27° ENE
Cosmos 2278 Rocket 2.2 22:47:56 10° NNW 22:53:35 70° WSW 22:54:59 50° S
Cosmos 158 Rocket 3.8 22:52:56 52° SSW 22:54:08 81° WNW 22:59:03 10° NNE
Lacrosse 5 rocket 4.4 22:57:47 10° NNW 22:59:19 12° N 23:00:50 10° NNE
Spot 4 3.7 22:59:07 66° SSE 22:59:48 86° ENE 23:04:36 10° NNW
SL-16 R/B 2.5 23:00:46 45° ESE 23:01:13 46° ESE 23:06:37 10° NE
Cosmos 1943 Rocket 4.1 22:56:56 10° N 23:01:15 22° NE 23:04:40 13° E
TIMED 4.4 23:01:49 77° ESE 23:01:49 77° ESE 23:06:10 10° NNE
Cosmos 2058 3.8 23:01:10 36° WSW 23:02:00 41° WNW 23:05:56 10° N
Cosmos 1408 3.1 23:03:24 55° NW 23:03:24 55° NW 23:06:37 10° N
Gblst 52 Del rocket 4.3 22:59:53 10° WNW 23:05:45 71° SW 23:07:28 49° SSE
Cosmos 2056 Rocket 3.6 23:01:25 10° NNW 23:06:50 70° ENE 23:07:58 54° SE
Cosmos 2154 Rocket 4.4 23:07:50 33° SW 23:10:29 58° W 23:16:38 10° N
Nadezhda 3 Rocket 4.3 23:05:33 10° NNW 23:11:50 62° W 23:13:54 41° SSW
Cosmos 2341 Rocket 3.9 23:11:46 50° S 23:13:32 84° E 23:19:47 10° N
Cosmos 1680 Rocket 4.3 23:15:58 28° WSW 23:18:22 47° WNW 23:23:30 10° N
Meteor 2-3 Rocket 4.2 23:21:02 43° ESE 23:21:46 45° E 23:27:09 10° NNE
USA 267 3.2 23:21:24 48° SSE 23:23:17 68° SW 23:29:51 10° NW
Cosmos 2151 3.1 23:23:52 65° W 23:23:57 66° W 23:28:13 10° N
IRIDIUM 104 4.3 23:23:26 59° SE 23:24:03 64° E 23:29:13 10° N
Helios 1A 4.0 23:24:53 34° ENE 23:25:04 34° ENE 23:28:51 10° N
SL-8 Rocket 3.9 23:30:59 55° S 23:32:29 87° E 23:38:41 10° N
Cosmos 1825 3.2 23:32:56 39° WNW 23:32:56 39° WNW 23:36:19 10° N
IRIDIUM 114 4.2 23:32:35 68° SSE 23:33:11 78° E 23:38:25 10° N
Cosmos 1340 3.5 23:34:23 44° NE 23:34:23 44° NE 23:37:12 10° NNE
CZ-4C R/B 4.5 23:27:45 10° NNW 23:33:48 30° NE 23:40:38 10° E
Cosmos 1452 Rocket 4.3 23:28:48 10° N 23:33:49 43° ENE 23:35:06 36° E
BREEZE-M DEB (TANK) 4.4 23:31:19 10° WNW 23:32:45 16° W 23:32:45 16° W
COSMOS 2455 3.9 23:29:38 10° NNW 23:35:18 40° NE 23:38:24 24° ESE
ALOS 2 2.5 23:35:27 81° W 23:35:27 81° W 23:39:47 10° NNW
Cosmos 1408 Rocket 3.8 23:35:56 58° ENE 23:35:56 58° ENE 23:39:58 10° NNE
Cosmos 1933 3.6 23:34:40 10° N 23:38:13 64° NNE 23:38:13 64° NNE
Meteor 2-12 Rocket 4.3 23:37:27 57° S 23:38:47 81° E 23:44:57 10° N
Cosmos 1151 Rocket 3.0 23:35:55 10° N 23:40:03 78° NNE 23:40:03 78° NNE
IRIDIUM 103 4.2 23:41:42 70° SSW 23:42:19 87° W 23:47:35 10° N
Cosmos 44 3.2 23:43:37 64° WNW 23:43:47 65° NW 23:48:12 10° NNE
Cosmos 2369 Rocket 3.6 23:41:05 10° N 23:46:03 32° NE 23:48:49 21° E
Cosmos 1727 Rocket 4.2 23:40:16 10° N 23:46:26 61° E 23:48:04 46° SE
GP-B 3.2 23:44:27 10° N 23:48:51 64° W 23:48:51 64° W
Cosmos 371 Rocket 3.2 23:45:16 10° NNW 23:50:09 78° ENE 23:50:25 74° ESE
Helios 1B rocket 3.9 23:52:28 10° NE 23:55:23 27° E 23:55:23 27° E
